www.pogodaiklimat.ru

Погода и климат >> Архив погоды >> Украина >> Остер


ПОГОДА в Остере

  • Прогноз погоды в Остере
  • Монитор погоды в Остере

АРХИВ ПОГОДЫ в Остере

Время (UTC), дата Ветер
(напр.,м/с)
 
Видим.   Явления Облачность Т
(С)
Тd
(С)
f
(%)
Тe
(С)
Тes
(С)
Комфортность P
(гПа)
Po
(гПа)
Тmin
(С)
Tmax
(С)
R
(мм)
R24
(мм)
S
(см)
00 19.08 В 2 10 км ясно +12.2 +10.3 88 +11 +11 1017.2 1003.4
03 19.08 В 2 6000 м дымка ясно +9.4 +8.4 93 +8 +8 1018.3 1004.4
06 19.08 ЮЗ 2 20 км ясно +18.3 +12.8 70 +19 +24 1018.8 1005.3 +9.3
09 19.08 ЮЗ 2 20 км ясно +26.1 +11.1 39 +27 +40 жарко 1018.6 1005.5
12 19.08 ЮВ 2 20 км ясно +28.2 +10.6 33 +29 +39 жарко 1017.9 1004.9
15 19.08 ЮВ 2 20 км ясно +28.2 +11.5 35 +29 +31 жарко 1018.2 1005.2
18 19.08 В 2 20 км ясно +22.4 +13.8 58 +26 +26 жарко 1019.1 1005.8 +29.1
21 19.08 В 2 20 км ясно +17.9 +11.7 67 +18 +18 1020.0 1006.5
00 20.08 В 2 20 км ясно +15.3 +11.6 79 +15 +15 1020.6 1006.9
03 20.08 ЮВ 2 15 км ясно +13.8 +11.2 84 +13 +13 1021.2 1007.5
06 20.08 ЮВ 2 20 км ясно +20.2 +13.2 64 +23 +28 комфорт 1021.8 1008.4 +13.5
09 20.08 ЮВ 4 20 км ясно +28.4 +14.3 42 +31 +39 душно 1021.8 1008.7
12 20.08 ЮВ 4 20 км 1/1 1000 м
[Cu hum]
+31.1 +14.1 36 +33 +39 душно 1021.0 1008.1
15 20.08 Ю 4 20 км 1/1 1000 м
[Cu hum]
+30.2 +13.1 35 +31 +33 жарко 1021.0 1008.0
18 20.08 ЮВ 2 20 км 3/0
[Ci fib]
+24.1 +17.2 65 +28 +28 душно 1022.0 1008.8 +31.5
21 20.08 штиль 0 10 км ясно +18.5 +16.0 85 +19 +19 1023.0 1009.5
00 21.08 штиль 0 10 км ясно +16.2 +14.4 89 +16 +16 1022.9 1009.3
03 21.08 штиль 0 8000 м дымка 8/0
[Ci fib]
+15.3 +13.9 91 +15 +15 1023.0 1009.3
06 21.08 штиль 0 20 км 3/0
[Ci fib]
+22.1 +15.2 65 +26 +32 душно 1023.4 1010.0 +14.5
09 21.08 ЮВ 2 20 км 3/0
[Ci fib]
+29.5 +11.8 34 +30 +42 жарко 1022.2 1009.2
12 21.08 ЮВ 2 20 км ясно +30.7 +12.2 32 +31 +41 жарко 1021.0 1008.0
15 21.08 ЮВ 2 20 км ясно +30.7 +13.6 35 +32 +34 жарко 1019.8 1006.9
18 21.08 В 2 20 км ясно +23.6 +17.5 69 +28 +28 душно 1020.2 1007.0 +31.6
21 21.08 штиль 0 20 км ясно +19.1 +16.1 83 +20 +20 1020.7 1007.2
00 22.08 штиль 0 4000 м дымка ясно +16.2 +14.6 90 +16 +16 1020.5 1006.9
03 22.08 СЗ 2 8000 м дымка ясно +17.7 +16.2 91 +18 +18 1021.6 1008.1
06 22.08 СЗ 2 13 км 10/10 600 м
[Sc]
+17.9 +15.9 88 +18 +18 1022.7 1009.2 +16.2
09 22.08 З 4 20 км 8/5 600 м
[Sc Cs]
+22.1 +15.0 64 +26 +29 душно 1023.9 1010.5
12 22.08 СВ 4 20 км 9/8 600 м
[Sc Ac und Ci fib]
+22.1 +14.8 63 +25 +26 комфорт 1024.1 1010.7
15 22.08 СВ 4 20 км 6/0
[Cs]
+21.7 +14.2 62 +25 +26 комфорт 1024.3 1010.9
18 22.08 С 2 20 км 3/3 600 м
[Sc]
+19.1 +14.1 73 +21 +21 комфорт 1025.2 1011.7 +22.4
21 22.08 С 2 10 км ясно +17.1 +13.7 80 +17 +17 1025.9 1012.3
00 23.08 С 2 10 км ясно +15.1 +12.7 86 +15 +15 1026.3 1012.6
06 23.08 ЮВ 2 20 км 8/0
[Ac trans Cs]
+17.3 +12.0 71 +18 +21 1026.4 1012.8 +13.5
12 23.08 СВ 4 20 км 9/0
[Ac und Cs]
+23.4 +13.0 52 +26 +30 жарко 1025.8 1012.5
18 23.08 С 2 20 км 8/4 600 м
[Cb cap Ac und Cs]
+20.9 +12.8 60 +24 +24 комфорт 1026.0 1012.5 +24.6
00 24.08 штиль 0 20 км 8/0
[Ac und Ci fib]
+15.7 +12.0 79 +16 +16 1026.2 1012.5
06 24.08 СВ 2 20 км 4/0
[Ci fib]
+16.5 +11.1 70 +17 +21 1026.6 1012.9 +13.3
12 24.08 С 4 20 км 3/0
[Cs]
+27.2 +11.7 38 +28 +35 жарко 1024.5 1011.3
18 24.08 СЗ 2 20 км ясно +21.3 +10.7 51 +23 +23 комфорт 1024.7 1011.3 +28.0
00 25.08 СВ 2 20 км ясно +13.3 +9.6 78 +13 +13 1025.9 1012.1
06 25.08 СВ 2 20 км ясно +18.6 +11.5 63 +20 +24 1026.6 1013.0 +11.5
12 25.08 ЮВ 4 20 км 1/0
[Ac trans]
+27.1 +10.1 34 +28 +34 жарко 1025.1 1011.9
18 25.08 СВ 2 20 км ясно +22.8 +12.8 53 +26 +26 жарко 1025.7 1012.3 +27.5

 

Местоположение метеостанции Остер (Черниговская область, Украина): широта 50.95 долгота 30.88 высота над уровнем моря 104 м.

В архиве по умолчанию представлена погода в Остере за последнюю неделю. Архивные данные за месяц целиком и за предыдущие месяцы, начиная с января 2011 года, Вы можете получить, выбрав интересующий диапазон дат из раскрывающегося списка и нажав кнопку "Ввод!".


*Определитесь, кто Вы:
робот инопланетянин человек

Внимание! Время в таблицах - всемирное. Для получения местного времени необходимо прибавить поправку, которая равна 2 ч.

Смотрите также архив погоды в соседних городах и на ближайших метеорологических станциях:

Погода в Вышгороде (Киевская область, Украина) (50 км)
Погода в Чернобыле (Киевская область, Украина) (58 км)
Погода в Чернигове (Черниговская область, Украина) (63 км)
Погода в Киеве (город Киев, Украина) (65 км)
Погода в Борисполе (Киевская область, Украина) (69 км)
Погода в Барышевке (Киевская область, Украина) (72 км)
Погода в Нежине (Черниговская область, Украина) (72 км)
Погода в Тетереве (Киевская область, Украина) (95 км)
Погода в Покошичах (Черниговская область, Украина) (99 км)
Погода в Брагине (Гомельская область, Беларусь) (103 км)

Пояснения к столбцам:

Ветер - указаны скорость ветра в м/с - средняя за 10 мин, порывы в срок и между сроками (в фигурных скобках) и направление, откуда дует ветер: С - северный, СВ - северо-восточный, В - восточный, ЮВ - юго-восточный, Ю - южный, ЮЗ - юго-западный, З - западный, СЗ - северо-западный.
Видимость - горизонтальная дальность видимости в метрах или километрах. При видимости от 1 до 10 км при отсутствии осадков обычно наблюдается дымка, при ухудшении видимости до 1 км и менее - туман. В сухую погоду видимость может ухудшаться дымом, пылью или мглою.
Явления - указаны атмосферные явления, наблюдавшиеся в срок или в последний час перед сроком; фигурными скобками обозначены явления, наблюдавшиеся между сроками (за 1-3 часа до срока); квадратными скобками обозначены град или гололедные отложения с указанием их диаметра в мм.
Облачность - указаны через наклонную черту общая и нижняя облачность в баллах и высота нижней границы облаков в метрах; квадратными скобками обозначены формы облаков: Ci - перистые, Cs - перисто-слоистые, Cc - перисто-кучевые, Ac - высококучевые, As - высокослоистые, Sc - слоисто-кучевые, Ns - слоисто-дождевые, Cu - кучевые, Cb - кучево-дождевые. Подробнее классификацию облаков см. в Атласе облаков (PDF).
T - Температура воздуха - температура, измеренная на высоте 2 м над землей.
Td - Температура точки росы - температура, при понижении до которой содержащийся в воздухе водяной пар достигнет насыщения.
f - Относительная влажность воздуха - влажноcть воздуха, измеренная на высоте 2 м над землей.
Te - Эффективная температура - температура, которую ощущает одетый по сезону человек в тени. Характеристика душности погоды. При расчете учитывается влияние влажности воздуха и скорости ветра на теплоощущения человека.
Tes - Эффективная температура на солнце - температура, которую ощущает человек, с поправкой на солнечный нагрев. Характеристика знойности погоды. Зависит от высоты солнца над горизонтом, облачности и скорости ветра. Ночью, в пасмурную погоду, а также при ветре 12 м/с и более поправка равна нулю.
P - Атмосферное давление - приведенное к уровню моря атмосферное давление.
Po - Атмосферное давление - измеренное на уровне метеостанции атмосферное давление.
Tmin - Минимальная температура - минимум температуры воздуха на высоте 2 м над землей.
Tmax - Максимальная температура - максимум температуры воздуха на высоте 2 м над землей.
R - Количество осадков - Количество выпавших осадков за период времени, мм. При наведении курсора мыши на число - период времени, за который выпало указанное количество осадков.
R24 - Количество осадков - Количество выпавших осадков за 24 часа, мм.
S - Снежный покров - Высота снежного покрова, см. При наведении курсора мыши на число - состояние снежного покрова и степень покрытия местности в баллах.